Regional Weather Roundup
Issued by NWS Little Rock, AR

Home | Current Version | Previous Version | Text Only | Print | Product List | Glossary On
Versions: 1 2 3 4 5 6 7 8 9 10 11 12 13 14 15 16 17 18 19 20 21 22 23 24 25 26 27 28 29 30 31 32 33 34 35 36 37 38 39 40 41 42 43 44 45 46 47 48 49 50
000
ASUS44 KLZK 172105
RWRLZK

WEATHER ROUNDUP FOR ARKANSAS
NATIONAL WEATHER SERVICE LITTLE ROCK AR
300 PM CST WED JAN 17 2018

NOTE: "FAIR" INDICATES FEW OR NO CLOUDS BELOW 12,000 FEET WITH NO
SIGNIFICANT WEATHER AND/OR OBSTRUCTIONS TO VISIBILITY.

ARZ001-003-010-029-172200-
NORTHWEST ARKANSAS

CITY           SKY/WX    TMP DP  RH WIND       PRES   REMARKS
FAYETTEVILLE   SUNNY     30   7  37 VRB5      30.58F WCI  25
FORT SMITH     SUNNY     29   8  41 W7        30.67F WCI  22
HARRISON       SUNNY     28  12  51 NE5       30.58F WCI  23
BENTONVILLE    SUNNY     30  11  45 SW7       30.60F WCI  23
ROGERS         SUNNY     29  11  47 W7        30.58F WCI  22
SILOAM SPGS    SUNNY     28   9  44 SW7       30.59F WCI  21
HIGHFILL       SUNNY     28   7  41 SW6       30.58F WCI  22
SPRINGDALE     SUNNY     27   5  39 W6        30.59F WCI  20
$$

ARZ004-005-016-172200-
NORTH CENTRAL ARKANSAS

CITY           SKY/WX    TMP DP  RH WIND       PRES   REMARKS
BATESVILLE     SUNNY     28   9  44 VRB5      30.66F WCI  23
FLIPPIN        SUNNY     32  12  43 N3        30.64F
MTN HOME       SUNNY     23  10  57 VRB3      30.61F
$$

ARZ040-041-172200-
WEST CENTRAL ARKANSAS

CITY           SKY/WX    TMP DP  RH WIND       PRES   REMARKS
MENA           SUNNY     34   5  29 CALM      30.60F
MOUNT IDA      SUNNY     33   8  35 CALM      30.61F
$$

ARZ009-017-025-026-028-172200-
NORTHEAST ARKANSAS

CITY           SKY/WX    TMP DP  RH WIND       PRES   REMARKS
JONESBORO      FAIR      25  12  58 VRB5      30.68F WCI  19
NEWPORT        FAIR      25  13  60 NE5       30.69F WCI  19
WALNUT RIDGE   FAIR      27  10  49 SW5       30.68F WCI  22
BLYTHEVILLE    FAIR      16  10  77 S3        30.70F
$$

ARZ022-023-033-042-044-172200-
CENTRAL ARKANSAS

CITY           SKY/WX    TMP DP  RH WIND       PRES   REMARKS
LITTLE ROCK    SUNNY     26  10  50 CALM      30.70F
JACKSONVILLE   SUNNY     29  10  45 CALM      30.67F
SEARCY         FAIR      32  11  41 VRB3      30.68F
HOT SPRINGS    SUNNY     30  10  43 CALM      30.67F
RUSSELLVILLE   SUNNY     29   6  38 SW5       30.66F WCI  24
CLINTON        FAIR      30   7  37 E5        30.64F WCI  25
$$

ARZ036-172200-
EAST ARKANSAS

CITY           SKY/WX    TMP DP  RH WIND       PRES   REMARKS
WEST MEMPHIS   FAIR      18  11  74 VRB5      30.70F WCI  11
$$

ARZ050-053-066-070-073-172200-
SOUTHWEST ARKANSAS

CITY           SKY/WX    TMP DP  RH WIND       PRES   REMARKS
ARKADELPHIA    FAIR      31  15  52 S3        30.71F
CAMDEN         FAIR      32  10  40 CALM      30.71F
TEXARKANA      SUNNY     26   9  48 CALM      30.69F
EL DORADO      FAIR      29  13  51 N6        30.70F WCI  23
DE QUEEN       SUNNY     32   6  33 CALM      30.66F
$$

ARZ056-057-069-172200-
SOUTHEAST ARKANSAS

CITY           SKY/WX    TMP DP  RH WIND       PRES   REMARKS
PINE BLUFF     FAIR      20  10  65 NE6       30.72F WCI  12
STUTTGART      FAIR      23  11  60 W3        30.71F
MONTICELLO     FAIR      28  11  48 VRB5      30.69F WCI  23

$$





USA.gov is the U.S. government's official web portal to all federal, state and local government web resources and services.